Location: Adrasan
(36.3319°N, 30.4314°E)
Time: 07:00:09
(UTC+00:00)

COSMOS 2455 - Pass Details

Date: 09 December 2023
Orbit: 900 x 909 km, 67.1° (Epoch: 01 March)

Event Time Altitude Azimuth Distance (km) Brightness Sun altitude
Rises 15:48:04 0° 202° (SSW) 3,503 6.6 -12.8°
Reaches altitude 10° 15:50:34 10° 201° (SSW) 2,566 5.8 -13.3°
Maximum altitude 15:56:31 81° 115° (ESE) 914 2.8 -14.4°
Enters shadow 16:02:09 12° 29° (NNE) 2,452 4.7 -15.5°
